Time,TemperatureF,DewpointF,PressureIn,WindDirection,WindDirectionDegrees,WindSpeedMPH,WindSpeedGustMPH,Humidity,HourlyPrecipIn,Conditions,Clouds,dailyrainin,SoftwareType,DateUTC
2013-05-14 00:01:00,42.8,31.1,30.04,WNW,284,0.0,1.0,63,0.00,,,0.00,WeatherCatV1.02B3,2013-05-14 04:01:00,
2013-05-14 00:06:00,42.7,30.6,30.04,NW,317,0.0,9.0,62,0.00,,,0.00,WeatherCatV1.02B3,2013-05-14 04:06:00,
2013-05-14 00:11:00,42.6,30.9,30.04,WNW,289,1.0,4.0,63,0.00,,,0.00,WeatherCatV1.02B3,2013-05-14 04:11:00,
2013-05-14 00:16:00,42.6,31.3,30.04,WNW,289,0.0,0.0,64,0.00,,,0.00,WeatherCatV1.02B3,2013-05-14 04:16:00,
2013-05-14 00:21:00,42.4,31.1,30.05,WNW,290,0.0,4.0,64,0.00,,,0.00,WeatherCatV1.02B3,2013-05-14 04:21:00,
2013-05-14 00:26:00,42.3,31.0,30.05,WNW,290,0.0,3.0,64,0.00,,,0.00,WeatherCatV1.02B3,2013-05-14 04:26:00,
2013-05-14 00:31:00,42.1,31.2,30.05,WNW,290,0.0,0.0,65,0.00,,,0.00,WeatherCatV1.02B3,2013-05-14 04:31:00,
2013-05-14 00:36:00,41.9,31.0,30.05,WNW,290,0.0,2.0,65,0.00,,,0.00,WeatherCatV1.02B3,2013-05-14 04:36:00,
2013-05-14 00:41:00,41.8,32.0,30.05,WNW,290,0.0,2.0,68,0.00,,,0.00,WeatherCatV1.02B3,2013-05-14 04:41:00,
2013-05-14 00:46:00,41.6,31.8,30.05,WNW,290,0.0,0.0,68,0.00,,,0.00,WeatherCatV1.02B3,2013-05-14 04:46:00,
2013-05-14 00:51:00,41.4,32.0,30.05,WNW,290,0.0,1.0,69,0.00,,,0.00,WeatherCatV1.02B3,2013-05-14 04:51:00,
2013-05-14 00:56:00,41.0,32.0,30.05,WNW,290,0.0,0.0,70,0.00,,,0.00,WeatherCatV1.02B3,2013-05-14 04:56:00,
2013-05-14 01:01:00,40.7,32.0,30.05,WNW,290,0.0,0.0,71,0.00,,,0.00,WeatherCatV1.02B3,2013-05-14 05:01:00,
2013-05-14 01:06:00,40.4,32.4,30.05,WNW,290,0.0,0.0,73,0.00,,,0.00,WeatherCatV1.02B3,2013-05-14 05:06:00,
2013-05-14 01:10:00,40.2,32.6,30.05,WNW,290,0.0,0.0,74,0.00,,,0.00,WeatherCatV1.02B3,2013-05-14 05:10:00,
2013-05-14 01:15:00,39.9,32.3,30.05,WNW,290,0.0,0.0,74,0.00,,,0.00,WeatherCatV1.02B3,2013-05-14 05:15:00,
2013-05-14 01:20:00,39.6,32.0,30.05,WNW,290,0.0,0.0,74,0.00,,,0.00,WeatherCatV1.02B3,2013-05-14 05:20:00,
2013-05-14 01:25:00,39.3,31.7,30.05,WNW,290,0.0,1.0,74,0.00,,,0.00,WeatherCatV1.02B3,2013-05-14 05:25:00,
2013-05-14 01:30:00,39.2,32.6,30.05,WNW,290,0.0,0.0,77,0.00,,,0.00,WeatherCatV1.02B3,2013-05-14 05:30:00,
2013-05-14 01:35:00,39.0,32.7,30.05,WNW,290,0.0,0.0,78,0.00,,,0.00,WeatherCatV1.02B3,2013-05-14 05:35:00,
2013-05-14 01:40:00,38.8,32.2,30.05,WNW,290,0.0,0.0,77,0.00,,,0.00,WeatherCatV1.02B3,2013-05-14 05:40:00,
2013-05-14 01:45:00,38.6,32.0,30.04,WNW,290,0.0,0.0,77,0.00,,,0.00,WeatherCatV1.02B3,2013-05-14 05:45:00,
2013-05-14 01:50:00,38.4,32.2,30.04,WNW,290,0.0,0.0,78,0.00,,,0.00,WeatherCatV1.02B3,2013-05-14 05:50:00,
2013-05-14 01:55:00,38.3,31.7,30.04,WNW,290,2.0,2.0,77,0.00,,,0.00,WeatherCatV1.02B3,2013-05-14 05:55:00,
2013-05-14 02:00:00,38.3,32.1,30.04,WNW,290,1.0,1.0,78,0.00,,,0.00,WeatherCatV1.02B3,2013-05-14 06:00:00,
2013-05-14 02:05:00,38.3,31.4,30.04,WNW,290,0.0,0.0,76,0.00,,,0.00,WeatherCatV1.02B3,2013-05-14 06:05:00,
2013-05-14 02:10:00,38.3,31.7,30.04,WNW,290,1.0,3.0,77,0.00,,,0.00,WeatherCatV1.02B3,2013-05-14 06:10:00,
2013-05-14 02:15:00,38.4,31.8,30.04,WNW,290,0.0,3.0,77,0.00,,,0.00,WeatherCatV1.02B3,2013-05-14 06:15:00,
2013-05-14 02:20:00,38.4,32.8,30.04,WNW,290,0.0,0.0,80,0.00,,,0.00,WeatherCatV1.02B3,2013-05-14 06:20:00,
2013-05-14 02:25:00,38.3,32.4,30.04,WNW,290,0.0,3.0,79,0.00,,,0.00,WeatherCatV1.02B3,2013-05-14 06:25:00,
2013-05-14 02:30:00,38.2,32.3,30.04,WNW,290,0.0,0.0,79,0.00,,,0.00,WeatherCatV1.02B3,2013-05-14 06:30:00,
2013-05-14 02:35:00,38.2,32.3,30.04,WNW,290,0.0,0.0,79,0.00,,,0.00,WeatherCatV1.02B3,2013-05-14 06:35:00,
2013-05-14 02:40:00,38.1,32.5,30.04,WNW,290,0.0,0.0,80,0.00,,,0.00,WeatherCatV1.02B3,2013-05-14 06:40:00,
2013-05-14 02:45:00,38.1,32.2,30.04,WNW,290,0.0,0.0,79,0.00,,,0.00,WeatherCatV1.02B3,2013-05-14 06:45:00,
2013-05-14 02:50:00,38.0,32.4,30.04,WNW,290,0.0,0.0,80,0.00,,,0.00,WeatherCatV1.02B3,2013-05-14 06:50:00,
2013-05-14 02:55:00,38.0,32.1,30.04,WNW,290,3.0,3.0,79,0.00,,,0.00,WeatherCatV1.02B3,2013-05-14 06:55:00,
2013-05-14 03:00:00,38.0,31.8,30.04,WNW,290,0.0,0.0,78,0.00,,,0.00,WeatherCatV1.02B3,2013-05-14 07:00:00,
2013-05-14 03:05:00,38.0,31.8,30.04,WNW,290,0.0,0.0,78,0.00,,,0.00,WeatherCatV1.02B3,2013-05-14 07:05:00,
2013-05-14 03:10:00,38.0,31.8,30.04,WNW,290,0.0,0.0,78,0.00,,,0.00,WeatherCatV1.02B3,2013-05-14 07:10:00,
2013-05-14 03:15:00,38.0,32.4,30.04,WNW,290,0.0,0.0,80,0.00,,,0.00,WeatherCatV1.02B3,2013-05-14 07:15:00,
2013-05-14 03:20:00,38.1,32.5,30.04,WNW,290,2.0,3.0,80,0.00,,,0.00,WeatherCatV1.02B3,2013-05-14 07:20:00,
2013-05-14 03:25:00,38.2,33.2,30.04,WNW,290,0.0,0.0,82,0.00,,,0.00,WeatherCatV1.02B3,2013-05-14 07:25:00,
2013-05-14 03:30:00,38.3,33.0,30.04,WNW,290,3.0,3.0,81,0.00,,,0.00,WeatherCatV1.02B3,2013-05-14 07:30:00,
2013-05-14 03:35:00,38.6,32.3,30.04,WNW,290,1.0,3.0,78,0.00,,,0.00,WeatherCatV1.02B3,2013-05-14 07:35:00,
2013-05-14 03:40:00,38.8,32.2,30.04,WNW,290,0.0,0.0,77,0.00,,,0.00,WeatherCatV1.02B3,2013-05-14 07:40:00,
2013-05-14 03:45:00,39.1,32.8,30.04,WNW,290,0.0,0.0,78,0.00,,,0.00,WeatherCatV1.02B3,2013-05-14 07:45:00,
2013-05-14 03:50:00,39.3,32.7,30.04,WNW,290,0.0,0.0,77,0.00,,,0.00,WeatherCatV1.02B3,2013-05-14 07:50:00,
2013-05-14 03:55:00,39.5,32.6,30.04,WNW,290,0.0,2.0,76,0.00,,,0.00,WeatherCatV1.02B3,2013-05-14 07:55:00,
2013-05-14 04:00:00,39.8,32.5,30.04,WNW,290,2.0,2.0,75,0.00,,,0.00,WeatherCatV1.02B3,2013-05-14 08:00:00,
2013-05-14 04:05:00,40.1,32.5,30.04,WNW,290,0.0,0.0,74,0.00,,,0.00,WeatherCatV1.02B3,2013-05-14 08:05:00,
2013-05-14 04:10:00,40.3,33.3,30.04,WNW,290,0.0,0.0,76,0.00,,,0.00,WeatherCatV1.02B3,2013-05-14 08:10:00,
2013-05-14 04:15:00,40.4,32.4,30.04,WNW,290,0.0,0.0,73,0.00,,,0.00,WeatherCatV1.02B3,2013-05-14 08:15:00,
2013-05-14 04:20:00,40.6,32.3,30.04,WNW,290,0.0,3.0,72,0.00,,,0.00,WeatherCatV1.02B3,2013-05-14 08:20:00,
2013-05-14 04:25:00,40.7,32.0,30.04,WNW,290,0.0,0.0,71,0.00,,,0.00,WeatherCatV1.02B3,2013-05-14 08:25:00,
2013-05-14 04:30:00,40.9,33.6,30.05,WNW,290,0.0,0.0,75,0.00,,,0.00,WeatherCatV1.02B3,2013-05-14 08:30:00,
2013-05-14 04:35:00,40.9,33.9,30.05,WNW,290,0.0,0.0,76,0.00,,,0.00,WeatherCatV1.02B3,2013-05-14 08:35:00,
2013-05-14 04:40:00,40.9,32.6,30.05,WNW,290,0.0,0.0,72,0.00,,,0.00,WeatherCatV1.02B3,2013-05-14 08:40:00,
2013-05-14 04:45:00,41.0,32.7,30.05,WNW,290,0.0,1.0,72,0.00,,,0.00,WeatherCatV1.02B3,2013-05-14 08:45:00,
2013-05-14 04:51:00,41.2,32.5,30.05,WNW,290,0.0,3.0,71,0.00,,,0.00,WeatherCatV1.02B3,2013-05-14 08:51:00,
2013-05-14 04:56:00,41.3,33.0,30.05,WNW,290,2.0,4.0,72,0.00,,,0.00,WeatherCatV1.02B3,2013-05-14 08:56:00,
2013-05-14 05:01:00,41.4,32.4,30.05,NW,304,0.0,3.0,70,0.00,,,0.00,WeatherCatV1.02B3,2013-05-14 09:01:00,
2013-05-14 05:06:00,41.6,32.6,30.05,West,279,0.0,1.0,70,0.00,,,0.00,WeatherCatV1.02B3,2013-05-14 09:06:00,
2013-05-14 05:11:00,41.7,32.3,30.05,West,278,0.0,3.0,69,0.00,,,0.00,WeatherCatV1.02B3,2013-05-14 09:11:00,
2013-05-14 05:16:00,41.9,32.1,30.06,West,278,2.0,4.0,68,0.00,,,0.00,WeatherCatV1.02B3,2013-05-14 09:16:00,
2013-05-14 05:21:00,42.0,32.2,30.05,West,278,0.0,0.0,68,0.00,,,0.00,WeatherCatV1.02B3,2013-05-14 09:21:00,
2013-05-14 05:26:00,42.0,32.6,30.05,West,278,1.0,4.0,69,0.00,,,0.00,WeatherCatV1.02B3,2013-05-14 09:26:00,
2013-05-14 05:31:00,42.0,31.9,30.05,West,278,3.0,3.0,67,0.00,,,0.00,WeatherCatV1.02B3,2013-05-14 09:31:00,
2013-05-14 05:36:00,42.0,32.2,30.06,West,279,0.0,3.0,68,0.00,,,0.00,WeatherCatV1.02B3,2013-05-14 09:36:00,
2013-05-14 05:41:00,42.0,32.2,30.06,West,279,0.0,1.0,68,0.00,,,0.00,WeatherCatV1.02B3,2013-05-14 09:41:00,
2013-05-14 05:46:00,42.0,31.9,30.06,West,279,0.0,0.0,67,0.00,,,0.00,WeatherCatV1.02B3,2013-05-14 09:46:00,
2013-05-14 05:51:00,42.0,32.6,30.06,West,279,2.0,2.0,69,0.00,,,0.00,WeatherCatV1.02B3,2013-05-14 09:51:00,
2013-05-14 05:56:00,42.0,31.9,30.06,West,279,1.0,3.0,67,0.00,,,0.00,WeatherCatV1.02B3,2013-05-14 09:56:00,
2013-05-14 06:01:00,42.0,32.2,30.06,West,279,0.0,0.0,68,0.00,,,0.00,WeatherCatV1.02B3,2013-05-14 10:01:00,
2013-05-14 06:06:00,42.1,32.3,30.06,West,279,0.0,0.0,68,0.00,,,0.00,WeatherCatV1.02B3,2013-05-14 10:06:00,
2013-05-14 06:11:00,42.2,32.4,30.07,West,280,2.0,5.0,68,0.00,,,0.00,WeatherCatV1.02B3,2013-05-14 10:11:00,
2013-05-14 06:16:00,42.3,32.5,30.07,West,280,0.0,3.0,68,0.00,,,0.00,WeatherCatV1.02B3,2013-05-14 10:16:00,
2013-05-14 06:21:00,42.5,32.7,30.07,NW,319,0.0,0.0,68,0.00,,,0.00,WeatherCatV1.02B3,2013-05-14 10:21:00,
2013-05-14 06:26:00,42.6,32.4,30.07,NW,313,0.0,3.0,67,0.00,,,0.00,WeatherCatV1.02B3,2013-05-14 10:26:00,
2013-05-14 06:31:00,42.7,32.5,30.07,WNW,295,0.0,2.0,67,0.00,,,0.00,WeatherCatV1.02B3,2013-05-14 10:31:00,
2013-05-14 06:36:00,42.9,32.7,30.07,West,273,0.0,3.0,67,0.00,,,0.00,WeatherCatV1.02B3,2013-05-14 10:36:00,
2013-05-14 06:41:00,43.0,32.4,30.07,West,273,3.0,3.0,66,0.00,,,0.00,WeatherCatV1.02B3,2013-05-14 10:41:00,
2013-05-14 06:46:00,43.2,32.6,30.08,WNW,291,0.0,4.0,66,0.00,,,0.00,WeatherCatV1.02B3,2013-05-14 10:46:00,
2013-05-14 06:50:00,43.3,32.3,30.08,WNW,289,5.0,8.0,65,0.00,,,0.00,WeatherCatV1.02B3,2013-05-14 10:50:00,
2013-05-14 06:55:00,43.4,32.8,30.08,WNW,293,4.0,4.0,66,0.00,,,0.00,WeatherCatV1.02B3,2013-05-14 10:55:00,
2013-05-14 07:00:00,43.5,32.9,30.08,West,267,0.0,0.0,66,0.00,,,0.00,WeatherCatV1.02B3,2013-05-14 11:00:00,
2013-05-14 07:05:00,43.6,33.4,30.08,WNW,289,5.0,5.0,67,0.00,,,0.00,WeatherCatV1.02B3,2013-05-14 11:05:00,
2013-05-14 07:10:00,43.6,33.0,30.08,WNW,283,0.0,0.0,66,0.00,,,0.00,WeatherCatV1.02B3,2013-05-14 11:10:00,
2013-05-14 07:15:00,43.5,32.9,30.08,WNW,283,0.0,0.0,66,0.00,,,0.00,WeatherCatV1.02B3,2013-05-14 11:15:00,
2013-05-14 07:20:00,43.5,33.3,30.08,WNW,283,0.0,0.0,67,0.00,,,0.00,WeatherCatV1.02B3,2013-05-14 11:20:00,
2013-05-14 07:25:00,43.4,33.2,30.08,WNW,283,0.0,0.0,67,0.00,,,0.00,WeatherCatV1.02B3,2013-05-14 11:25:00,
2013-05-14 07:30:00,43.3,32.7,30.08,WNW,283,0.0,3.0,66,0.00,,,0.00,WeatherCatV1.02B3,2013-05-14 11:30:00,
2013-05-14 07:35:00,43.3,33.5,30.08,WNW,283,0.0,1.0,68,0.00,,,0.00,WeatherCatV1.02B3,2013-05-14 11:35:00,
2013-05-14 07:36:00,43.3,33.1,30.08,WNW,283,0.0,1.0,67,0.00,,,0.00,WeatherCatV1.02B3,2013-05-14 11:36:00,
2013-05-14 07:41:00,43.6,33.7,30.08,WNW,283,0.0,2.0,68,0.00,,,0.00,WeatherCatV1.02B3,2013-05-14 11:41:00,
2013-05-14 07:46:00,44.3,34.4,30.08,WNW,283,0.0,0.0,68,0.00,,,0.00,WeatherCatV1.02B3,2013-05-14 11:46:00,
2013-05-14 07:51:00,44.9,34.2,30.08,WNW,288,5.0,6.0,66,0.00,,,0.00,WeatherCatV1.02B3,2013-05-14 11:51:00,
2013-05-14 07:56:00,45.5,34.4,30.08,NW,325,0.0,4.0,65,0.00,,,0.00,WeatherCatV1.02B3,2013-05-14 11:56:00,
2013-05-14 08:01:00,46.2,34.3,30.08,NNW,342,0.0,1.0,63,0.00,,,0.00,WeatherCatV1.02B3,2013-05-14 12:01:00,
2013-05-14 08:06:00,46.7,34.0,30.08,NNW,345,0.0,6.0,61,0.00,,,0.00,WeatherCatV1.02B3,2013-05-14 12:06:00,
2013-05-14 08:11:00,47.0,34.3,30.08,NNW,331,4.0,5.0,61,0.00,,,0.00,WeatherCatV1.02B3,2013-05-14 12:11:00,
2013-05-14 08:16:00,47.4,34.6,30.08,NW,317,2.0,4.0,61,0.00,,,0.00,WeatherCatV1.02B3,2013-05-14 12:16:00,
2013-05-14 08:21:00,47.8,35.0,30.08,NNW,338,6.0,6.0,61,0.00,,,0.00,WeatherCatV1.02B3,2013-05-14 12:21:00,
2013-05-14 08:26:00,48.3,35.1,30.08,NE,46,0.0,6.0,60,0.00,,,0.00,WeatherCatV1.02B3,2013-05-14 12:26:00,
2013-05-14 08:31:00,48.7,35.0,30.08,NNW,348,0.0,3.0,59,0.00,,,0.00,WeatherCatV1.02B3,2013-05-14 12:31:00,
2013-05-14 08:36:00,48.7,34.6,30.08,NW,322,1.0,1.0,58,0.00,,,0.00,WeatherCatV1.02B3,2013-05-14 12:36:00,
2013-05-14 08:41:00,48.3,34.2,30.08,NNE,13,0.0,4.0,58,0.00,,,0.00,WeatherCatV1.02B3,2013-05-14 12:41:00,
2013-05-14 08:46:00,48.0,34.8,30.07,NW,316,2.0,2.0,60,0.00,,,0.00,WeatherCatV1.02B3,2013-05-14 12:46:00,
2013-05-14 08:51:00,47.8,35.0,30.07,North,0,0.0,0.0,61,0.00,,,0.00,WeatherCatV1.02B3,2013-05-14 12:51:00,
2013-05-14 08:56:00,47.7,34.9,30.07,NW,321,0.0,1.0,61,0.00,,,0.00,WeatherCatV1.02B3,2013-05-14 12:56:00,
2013-05-14 09:01:00,47.9,35.5,30.07,West,265,0.0,1.0,62,0.00,,,0.00,WeatherCatV1.02B3,2013-05-14 13:01:00,
2013-05-14 09:06:00,48.2,35.4,30.07,WNW,302,2.0,5.0,61,0.00,,,0.00,WeatherCatV1.02B3,2013-05-14 13:06:00,
2013-05-14 09:11:00,48.4,35.6,30.07,WNW,296,4.0,4.0,61,0.00,,,0.00,WeatherCatV1.02B3,2013-05-14 13:11:00,
2013-05-14 09:16:00,48.8,35.1,30.07,North,355,2.0,6.0,59,0.00,,,0.00,WeatherCatV1.02B3,2013-05-14 13:16:00,
2013-05-14 09:21:00,49.1,35.0,30.06,NW,312,0.0,5.0,58,0.00,,,0.00,WeatherCatV1.02B3,2013-05-14 13:21:00,
2013-05-14 09:26:00,49.4,35.2,30.06,NW,326,0.0,4.0,58,0.00,,,0.00,WeatherCatV1.02B3,2013-05-14 13:26:00,
2013-05-14 09:31:00,49.8,36.1,30.06,NW,320,0.0,3.0,59,0.00,,,0.00,WeatherCatV1.02B3,2013-05-14 13:31:00,
2013-05-14 09:36:00,50.2,34.7,30.06,NW,309,5.0,5.0,55,0.00,,,0.00,WeatherCatV1.02B3,2013-05-14 13:36:00,
2013-05-14 09:41:00,50.2,34.7,30.06,West,260,1.0,5.0,55,0.00,,,0.00,WeatherCatV1.02B3,2013-05-14 13:41:00,
2013-05-14 09:46:00,49.9,34.8,30.06,WNW,297,1.0,4.0,56,0.00,,,0.00,WeatherCatV1.02B3,2013-05-14 13:46:00,
2013-05-14 09:51:00,50.1,34.6,30.06,North,355,0.0,7.0,55,0.00,,,0.00,WeatherCatV1.02B3,2013-05-14 13:51:00,
2013-05-14 09:56:00,50.5,35.4,30.05,NNE,29,0.0,3.0,56,0.00,,,0.00,WeatherCatV1.02B3,2013-05-14 13:56:00,
2013-05-14 10:01:00,51.2,34.2,30.05,ENE,77,1.0,6.0,52,0.00,,,0.00,WeatherCatV1.02B3,2013-05-14 14:01:00,
2013-05-14 10:06:00,52.0,35.4,30.05,ENE,76,0.0,1.0,53,0.00,,,0.00,WeatherCatV1.02B3,2013-05-14 14:06:00,
2013-05-14 10:11:00,53.0,34.9,30.05,WNW,286,1.0,5.0,50,0.00,,,0.00,WeatherCatV1.02B3,2013-05-14 14:11:00,
2013-05-14 10:16:00,53.2,35.5,30.05,WNW,286,0.0,4.0,51,0.00,,,0.00,WeatherCatV1.02B3,2013-05-14 14:16:00,
2013-05-14 10:21:00,53.2,32.4,30.04,WNW,294,1.0,6.0,45,0.00,,,0.00,WeatherCatV1.02B3,2013-05-14 14:21:00,
2013-05-14 10:26:00,52.5,32.9,30.04,NE,55,2.0,6.0,47,0.00,,,0.00,WeatherCatV1.02B3,2013-05-14 14:26:00,
2013-05-14 10:31:00,51.9,32.3,30.04,WNW,297,1.0,4.0,47,0.00,,,0.00,WeatherCatV1.02B3,2013-05-14 14:31:00,
2013-05-14 10:36:00,51.4,32.4,30.04,WNW,298,0.0,3.0,48,0.00,,,0.00,WeatherCatV1.02B3,2013-05-14 14:36:00,
2013-05-14 10:41:00,51.1,33.1,30.04,West,274,0.0,0.0,50,0.00,,,0.00,WeatherCatV1.02B3,2013-05-14 14:41:00,
2013-05-14 10:46:00,51.1,32.6,30.04,West,281,0.0,6.0,49,0.00,,,0.00,WeatherCatV1.02B3,2013-05-14 14:46:00,
2013-05-14 10:51:00,51.3,33.8,30.04,West,270,0.0,4.0,51,0.00,,,0.00,WeatherCatV1.02B3,2013-05-14 14:51:00,
2013-05-14 10:56:00,51.5,33.5,30.04,West,271,0.0,3.0,50,0.00,,,0.00,WeatherCatV1.02B3,2013-05-14 14:56:00,
2013-05-14 11:01:00,51.8,32.2,30.04,WNW,288,3.0,5.0,47,0.00,,,0.00,WeatherCatV1.02B3,2013-05-14 15:01:00,
2013-05-14 11:06:00,51.6,32.0,30.04,WNW,288,0.0,3.0,47,0.00,,,0.00,WeatherCatV1.02B3,2013-05-14 15:06:00,
2013-05-14 11:11:00,51.8,32.7,30.04,West,277,2.0,5.0,48,0.00,,,0.00,WeatherCatV1.02B3,2013-05-14 15:11:00,
2013-05-14 11:16:00,52.0,32.9,30.04,WNW,282,0.0,4.0,48,0.00,,,0.00,WeatherCatV1.02B3,2013-05-14 15:16:00,
2013-05-14 11:21:00,53.3,35.1,30.04,WNW,291,2.0,7.0,50,0.00,,,0.00,WeatherCatV1.02B3,2013-05-14 15:21:00,
2013-05-14 11:26:00,53.6,30.5,30.04,WNW,289,2.0,4.0,41,0.00,,,0.00,WeatherCatV1.02B3,2013-05-14 15:26:00,
2013-05-14 11:31:00,52.7,30.3,30.04,WNW,289,2.0,3.0,42,0.00,,,0.00,WeatherCatV1.02B3,2013-05-14 15:31:00,
2013-05-14 11:36:00,52.3,32.7,30.04,WNW,289,0.0,0.0,47,0.00,,,0.00,WeatherCatV1.02B3,2013-05-14 15:36:00,
2013-05-14 11:41:00,52.1,32.5,30.05,NNW,346,5.0,5.0,47,0.00,,,0.00,WeatherCatV1.02B3,2013-05-14 15:41:00,
2013-05-14 11:46:00,52.1,33.0,30.04,NNE,27,1.0,4.0,48,0.00,,,0.00,WeatherCatV1.02B3,2013-05-14 15:46:00,
2013-05-14 11:51:00,52.0,32.4,30.05,NE,40,1.0,5.0,47,0.00,,,0.00,WeatherCatV1.02B3,2013-05-14 15:51:00,
2013-05-14 11:56:00,51.8,31.1,30.04,NE,55,0.0,0.0,45,0.00,,,0.00,WeatherCatV1.02B3,2013-05-14 15:56:00,
2013-05-14 12:01:00,51.9,31.8,30.04,NNE,27,0.0,4.0,46,0.00,,,0.00,WeatherCatV1.02B3,2013-05-14 16:01:00,
2013-05-14 12:06:00,52.3,32.7,30.04,NNE,27,0.0,0.0,47,0.00,,,0.00,WeatherCatV1.02B3,2013-05-14 16:06:00,
2013-05-14 12:11:00,52.5,31.2,30.04,NW,306,2.0,4.0,44,0.00,,,0.00,WeatherCatV1.02B3,2013-05-14 16:11:00,
2013-05-14 12:16:00,52.7,30.3,30.04,NW,315,0.0,4.0,42,0.00,,,0.00,WeatherCatV1.02B3,2013-05-14 16:16:00,
2013-05-14 12:21:00,52.9,31.6,30.04,NW,315,0.0,2.0,44,0.00,,,0.00,WeatherCatV1.02B3,2013-05-14 16:21:00,
2013-05-14 12:26:00,53.3,32.5,30.04,WNW,295,3.0,4.0,45,0.00,,,0.00,WeatherCatV1.02B3,2013-05-14 16:26:00,
2013-05-14 12:31:00,53.8,31.8,30.04,ENE,77,0.0,2.0,43,0.00,,,0.00,WeatherCatV1.02B3,2013-05-14 16:31:00,
2013-05-14 12:36:00,54.0,29.6,30.04,NW,305,0.0,2.0,39,0.00,,,0.00,WeatherCatV1.02B3,2013-05-14 16:36:00,
2013-05-14 12:41:00,54.2,32.2,30.04,WNW,292,0.0,3.0,43,0.00,,,0.00,WeatherCatV1.02B3,2013-05-14 16:41:00,
2013-05-14 12:46:00,55.4,32.1,30.04,NNW,329,0.0,9.0,41,0.00,,,0.00,WeatherCatV1.02B3,2013-05-14 16:46:00,
2013-05-14 12:51:00,55.0,31.7,30.03,WNW,288,0.0,3.0,41,0.00,,,0.00,WeatherCatV1.02B3,2013-05-14 16:51:00,
2013-05-14 12:56:00,54.4,30.0,30.04,WNW,284,4.0,10.0,39,0.00,,,0.00,WeatherCatV1.02B3,2013-05-14 16:56:00,
2013-05-14 13:01:00,53.7,28.7,30.03,WNW,300,6.0,11.0,38,0.00,,,0.00,WeatherCatV1.02B3,2013-05-14 17:01:00,
2013-05-14 13:06:00,53.6,29.3,30.04,WNW,294,9.0,9.0,39,0.00,,,0.00,WeatherCatV1.02B3,2013-05-14 17:06:00,
2013-05-14 13:11:00,53.5,29.8,30.03,WNW,284,6.0,8.0,40,0.00,,,0.00,WeatherCatV1.02B3,2013-05-14 17:11:00,
2013-05-14 13:16:00,53.5,31.6,30.04,WNW,283,4.0,12.0,43,0.00,,,0.00,WeatherCatV1.02B3,2013-05-14 17:16:00,
2013-05-14 13:21:00,54.3,33.4,30.03,WSW,238,12.0,18.0,45,0.00,,,0.00,WeatherCatV1.02B3,2013-05-14 17:21:00,
2013-05-14 13:26:00,55.3,30.8,30.03,WNW,293,2.0,11.0,39,0.00,,,0.00,WeatherCatV1.02B3,2013-05-14 17:26:00,
2013-05-14 13:31:00,55.6,29.7,30.03,NW,321,6.0,7.0,37,0.00,,,0.00,WeatherCatV1.02B3,2013-05-14 17:31:00,
2013-05-14 13:36:00,55.2,30.0,30.03,West,261,0.0,1.0,38,0.00,,,0.00,WeatherCatV1.02B3,2013-05-14 17:36:00,
2013-05-14 13:41:00,55.3,29.5,30.03,West,271,6.0,9.0,37,0.00,,,0.00,WeatherCatV1.02B3,2013-05-14 17:41:00,
2013-05-14 13:46:00,55.8,31.2,30.03,NW,310,7.0,7.0,39,0.00,,,0.00,WeatherCatV1.02B3,2013-05-14 17:46:00,
2013-05-14 13:51:00,55.6,31.7,30.03,WNW,289,11.0,12.0,40,0.00,,,0.00,WeatherCatV1.02B3,2013-05-14 17:51:00,
2013-05-14 13:56:00,55.6,29.1,30.03,West,281,7.0,8.0,36,0.00,,,0.00,WeatherCatV1.02B3,2013-05-14 17:56:00,
2013-05-14 14:01:00,55.1,30.0,30.03,NNW,331,2.0,5.0,38,0.00,,,0.00,WeatherCatV1.02B3,2013-05-14 18:01:00,
2013-05-14 14:06:00,55.6,34.0,30.03,SSW,213,4.0,7.0,44,0.00,,,0.00,WeatherCatV1.02B3,2013-05-14 18:06:00,
2013-05-14 14:11:00,55.8,30.6,30.03,NW,311,2.0,3.0,38,0.00,,,0.00,WeatherCatV1.02B3,2013-05-14 18:11:00,
2013-05-14 14:16:00,56.2,32.2,30.03,WNW,288,3.0,11.0,40,0.00,,,0.00,WeatherCatV1.02B3,2013-05-14 18:16:00,
2013-05-14 14:21:00,56.6,31.3,30.03,ENE,57,4.0,7.0,38,0.00,,,0.00,WeatherCatV1.02B3,2013-05-14 18:21:00,
2013-05-14 14:26:00,56.8,34.0,30.03,West,267,9.0,10.0,42,0.00,,,0.00,WeatherCatV1.02B3,2013-05-14 18:26:00,
2013-05-14 14:31:00,57.4,33.3,30.03,WNW,293,11.0,12.0,40,0.00,,,0.00,WeatherCatV1.02B3,2013-05-14 18:31:00,
2013-05-14 14:36:00,56.7,30.7,30.03,West,271,10.0,10.0,37,0.00,,,0.00,WeatherCatV1.02B3,2013-05-14 18:36:00,
2013-05-14 14:43:00,55.7,31.8,30.03,WNW,295,3.0,5.0,40,0.00,,,0.00,WeatherCatV1.02B3,2013-05-14 18:43:00,
2013-05-14 14:48:00,55.0,29.9,30.03,NW,315,6.0,6.0,38,0.00,,,0.00,WeatherCatV1.02B3,2013-05-14 18:48:00,
2013-05-14 14:53:00,54.5,30.7,30.02,WNW,289,8.0,8.0,40,0.00,,,0.00,WeatherCatV1.02B3,2013-05-14 18:53:00,
2013-05-14 14:58:00,54.3,29.9,30.02,WNW,282,6.0,8.0,39,0.00,,,0.00,WeatherCatV1.02B3,2013-05-14 18:58:00,
2013-05-14 15:03:00,54.6,30.1,30.02,WNW,293,3.0,8.0,39,0.00,,,0.00,WeatherCatV1.02B3,2013-05-14 19:03:00,
2013-05-14 15:08:00,55.1,32.4,30.02,WNW,286,2.0,5.0,42,0.00,,,0.00,WeatherCatV1.02B3,2013-05-14 19:08:00,
2013-05-14 15:13:00,55.5,30.3,30.01,WNW,286,6.0,10.0,38,0.00,,,0.00,WeatherCatV1.02B3,2013-05-14 19:13:00,
2013-05-14 15:18:00,55.1,30.0,30.02,NW,325,8.0,12.0,38,0.00,,,0.00,WeatherCatV1.02B3,2013-05-14 19:18:00,
2013-05-14 15:23:00,54.5,29.4,30.01,WNW,302,8.0,13.0,38,0.00,,,0.00,WeatherCatV1.02B3,2013-05-14 19:23:00,
2013-05-14 15:28:00,54.3,29.9,30.02,West,267,5.0,11.0,39,0.00,,,0.00,WeatherCatV1.02B3,2013-05-14 19:28:00,
2013-05-14 15:33:00,54.1,31.5,30.02,West,270,4.0,7.0,42,0.00,,,0.00,WeatherCatV1.02B3,2013-05-14 19:33:00,
2013-05-14 15:38:00,54.1,30.9,30.01,WNW,293,8.0,10.0,41,0.00,,,0.00,WeatherCatV1.02B3,2013-05-14 19:38:00,
2013-05-14 15:43:00,54.1,29.7,30.01,WNW,296,4.0,9.0,39,0.00,,,0.00,WeatherCatV1.02B3,2013-05-14 19:43:00,
2013-05-14 15:48:00,54.2,30.4,30.01,WNW,297,0.0,3.0,40,0.00,,,0.00,WeatherCatV1.02B3,2013-05-14 19:48:00,
2013-05-14 15:53:00,54.4,30.6,30.01,West,281,0.0,5.0,40,0.00,,,0.00,WeatherCatV1.02B3,2013-05-14 19:53:00,
2013-05-14 15:58:00,54.9,32.8,30.01,NNE,31,0.0,3.0,43,0.00,,,0.00,WeatherCatV1.02B3,2013-05-14 19:58:00,
2013-05-14 16:03:00,55.4,30.2,30.01,WNW,292,10.0,12.0,38,0.00,,,0.00,WeatherCatV1.02B3,2013-05-14 20:03:00,
2013-05-14 16:08:00,55.5,31.6,30.01,NW,323,1.0,5.0,40,0.00,,,0.00,WeatherCatV1.02B3,2013-05-14 20:08:00,
2013-05-14 16:13:00,55.5,30.3,30.01,WNW,292,10.0,10.0,38,0.00,,,0.00,WeatherCatV1.02B3,2013-05-14 20:13:00,
2013-05-14 16:18:00,55.4,29.6,30.01,NNW,339,2.0,9.0,37,0.00,,,0.00,WeatherCatV1.02B3,2013-05-14 20:18:00,
2013-05-14 16:23:00,55.1,30.6,30.01,West,280,0.0,0.0,39,0.00,,,0.00,WeatherCatV1.02B3,2013-05-14 20:23:00,
2013-05-14 16:28:00,55.4,30.2,30.01,West,265,9.0,9.0,38,0.00,,,0.00,WeatherCatV1.02B3,2013-05-14 20:28:00,
2013-05-14 16:33:00,55.8,29.9,30.01,WNW,290,4.0,12.0,37,0.00,,,0.00,WeatherCatV1.02B3,2013-05-14 20:33:00,
2013-05-14 16:38:00,55.9,30.0,30.00,WSW,254,2.0,5.0,37,0.00,,,0.00,WeatherCatV1.02B3,2013-05-14 20:38:00,
2013-05-14 16:43:00,56.1,32.1,30.00,NW,321,5.0,9.0,40,0.00,,,0.00,WeatherCatV1.02B3,2013-05-14 20:43:00,
2013-05-14 16:48:00,55.4,30.2,30.01,West,265,0.0,9.0,38,0.00,,,0.00,WeatherCatV1.02B3,2013-05-14 20:48:00,
2013-05-14 16:53:00,55.0,30.5,30.01,WNW,298,9.0,11.0,39,0.00,,,0.00,WeatherCatV1.02B3,2013-05-14 20:53:00,
2013-05-14 16:58:00,54.8,30.3,30.00,WNW,292,5.0,8.0,39,0.00,,,0.00,WeatherCatV1.02B3,2013-05-14 20:58:00,
2013-05-14 17:03:00,54.8,30.3,30.01,West,281,5.0,7.0,39,0.00,,,0.00,WeatherCatV1.02B3,2013-05-14 21:03:00,
2013-05-14 17:08:00,55.2,30.7,30.00,West,265,0.0,4.0,39,0.00,,,0.00,WeatherCatV1.02B3,2013-05-14 21:08:00,
2013-05-14 17:13:00,55.1,30.6,30.00,WNW,303,8.0,10.0,39,0.00,,,0.00,WeatherCatV1.02B3,2013-05-14 21:13:00,
2013-05-14 17:18:00,55.1,30.6,30.00,West,281,0.0,9.0,39,0.00,,,0.00,WeatherCatV1.02B3,2013-05-14 21:18:00,
2013-05-14 17:23:00,55.1,32.4,30.00,WNW,292,0.0,3.0,42,0.00,,,0.00,WeatherCatV1.02B3,2013-05-14 21:23:00,
2013-05-14 17:28:00,54.8,30.9,30.00,West,279,5.0,6.0,40,0.00,,,0.00,WeatherCatV1.02B3,2013-05-14 21:28:00,
2013-05-14 17:33:00,54.2,31.0,30.00,WNW,286,2.0,5.0,41,0.00,,,0.00,WeatherCatV1.02B3,2013-05-14 21:33:00,
2013-05-14 17:38:00,53.9,30.1,30.00,WNW,289,2.0,3.0,40,0.00,,,0.00,WeatherCatV1.02B3,2013-05-14 21:38:00,
2013-05-14 17:43:00,53.7,30.0,30.00,West,278,4.0,7.0,40,0.00,,,0.00,WeatherCatV1.02B3,2013-05-14 21:43:00,
2013-05-14 17:48:00,53.7,30.0,30.00,WNW,294,2.0,7.0,40,0.00,,,0.00,WeatherCatV1.02B3,2013-05-14 21:48:00,
2013-05-14 17:53:00,53.8,30.7,30.00,WSW,243,0.0,5.0,41,0.00,,,0.00,WeatherCatV1.02B3,2013-05-14 21:53:00,
2013-05-14 17:58:00,53.9,31.3,30.00,WSW,254,3.0,3.0,42,0.00,,,0.00,WeatherCatV1.02B3,2013-05-14 21:58:00,
2013-05-14 18:03:00,53.9,29.5,30.00,WNW,302,3.0,6.0,39,0.00,,,0.00,WeatherCatV1.02B3,2013-05-14 22:03:00,
2013-05-14 18:08:00,53.9,30.1,30.00,West,279,0.0,0.0,40,0.00,,,0.00,WeatherCatV1.02B3,2013-05-14 22:08:00,
2013-05-14 18:13:00,54.0,30.2,30.00,West,279,2.0,2.0,40,0.00,,,0.00,WeatherCatV1.02B3,2013-05-14 22:13:00,
2013-05-14 18:18:00,54.0,29.6,30.01,West,279,2.0,5.0,39,0.00,,,0.00,WeatherCatV1.02B3,2013-05-14 22:18:00,
2013-05-14 18:23:00,54.0,29.6,30.00,WNW,300,0.0,10.0,39,0.00,,,0.00,WeatherCatV1.02B3,2013-05-14 22:23:00,
2013-05-14 18:28:00,53.8,29.4,30.00,WNW,298,0.0,9.0,39,0.00,,,0.00,WeatherCatV1.02B3,2013-05-14 22:28:00,
2013-05-14 18:33:00,53.6,29.9,30.00,WNW,286,5.0,7.0,40,0.00,,,0.00,WeatherCatV1.02B3,2013-05-14 22:33:00,
2013-05-14 18:38:00,53.4,29.7,30.01,NW,311,3.0,7.0,40,0.00,,,0.00,WeatherCatV1.02B3,2013-05-14 22:38:00,
2013-05-14 18:43:00,53.4,29.7,30.01,West,278,0.0,8.0,40,0.00,,,0.00,WeatherCatV1.02B3,2013-05-14 22:43:00,
2013-05-14 18:48:00,53.3,29.6,30.01,NW,325,0.0,7.0,40,0.00,,,0.00,WeatherCatV1.02B3,2013-05-14 22:48:00,
2013-05-14 18:53:00,53.3,30.2,30.01,WNW,284,2.0,4.0,41,0.00,,,0.00,WeatherCatV1.02B3,2013-05-14 22:53:00,
2013-05-14 18:58:00,53.5,30.4,30.01,West,272,2.0,6.0,41,0.00,,,0.00,WeatherCatV1.02B3,2013-05-14 22:58:00,
2013-05-14 19:03:00,53.7,30.0,30.01,West,275,0.0,3.0,40,0.00,,,0.00,WeatherCatV1.02B3,2013-05-14 23:03:00,
2013-05-14 19:08:00,53.9,30.1,30.01,West,281,0.0,6.0,40,0.00,,,0.00,WeatherCatV1.02B3,2013-05-14 23:08:00,
2013-05-14 19:13:00,53.9,31.3,30.01,NNE,32,2.0,6.0,42,0.00,,,0.00,WeatherCatV1.02B3,2013-05-14 23:13:00,
2013-05-14 19:18:00,53.7,29.3,30.01,NW,309,4.0,10.0,39,0.00,,,0.00,WeatherCatV1.02B3,2013-05-14 23:18:00,
2013-05-14 19:23:00,53.6,29.9,30.02,NW,322,4.0,7.0,40,0.00,,,0.00,WeatherCatV1.02B3,2013-05-14 23:23:00,
2013-05-14 19:28:00,53.4,30.3,30.02,NW,321,6.0,9.0,41,0.00,,,0.00,WeatherCatV1.02B3,2013-05-14 23:28:00,
2013-05-14 19:33:00,53.1,30.6,30.02,NNW,331,3.0,4.0,42,0.00,,,0.00,WeatherCatV1.02B3,2013-05-14 23:33:00,
2013-05-14 19:38:00,52.6,30.2,30.02,WNW,289,2.0,4.0,42,0.00,,,0.00,WeatherCatV1.02B3,2013-05-14 23:38:00,
2013-05-14 19:43:00,52.4,30.6,30.02,NW,309,0.0,0.0,43,0.00,,,0.00,WeatherCatV1.02B3,2013-05-14 23:43:00,
2013-05-14 19:48:00,52.1,29.7,30.03,NW,306,6.0,6.0,42,0.00,,,0.00,WeatherCatV1.02B3,2013-05-14 23:48:00,
2013-05-14 19:53:00,51.8,30.0,30.03,WNW,292,1.0,3.0,43,0.00,,,0.00,WeatherCatV1.02B3,2013-05-14 23:53:00,
2013-05-14 19:58:00,51.5,30.9,30.03,NW,311,0.0,2.0,45,0.00,,,0.00,WeatherCatV1.02B3,2013-05-14 23:58:00,
2013-05-14 20:03:00,51.2,30.6,30.03,NW,311,0.0,4.0,45,0.00,,,0.00,WeatherCatV1.02B3,2013-05-15 00:03:00,
2013-05-14 20:08:00,50.9,31.4,30.03,WSW,250,0.0,1.0,47,0.00,,,0.00,WeatherCatV1.02B3,2013-05-15 00:08:00,
2013-05-14 20:13:00,50.6,31.1,30.03,West,266,0.0,4.0,47,0.00,,,0.00,WeatherCatV1.02B3,2013-05-15 00:13:00,
2013-05-14 20:18:00,50.4,32.0,30.03,West,266,0.0,3.0,49,0.00,,,0.00,WeatherCatV1.02B3,2013-05-15 00:18:00,
2013-05-14 20:23:00,50.1,31.7,30.04,West,266,0.0,0.0,49,0.00,,,0.00,WeatherCatV1.02B3,2013-05-15 00:23:00,
2013-05-14 20:28:00,49.9,31.5,30.04,West,266,1.0,1.0,49,0.00,,,0.00,WeatherCatV1.02B3,2013-05-15 00:28:00,
2013-05-14 20:33:00,49.8,31.9,30.04,West,266,0.0,1.0,50,0.00,,,0.00,WeatherCatV1.02B3,2013-05-15 00:33:00,
2013-05-14 20:38:00,49.7,32.3,30.04,West,266,0.0,1.0,51,0.00,,,0.00,WeatherCatV1.02B3,2013-05-15 00:38:00,
2013-05-14 20:43:00,49.7,32.8,30.04,West,266,0.0,1.0,52,0.00,,,0.00,WeatherCatV1.02B3,2013-05-15 00:43:00,
2013-05-14 20:48:00,49.7,32.8,30.05,West,266,0.0,0.0,52,0.00,,,0.00,WeatherCatV1.02B3,2013-05-15 00:48:00,
2013-05-14 20:53:00,49.7,35.1,30.05,West,266,0.0,0.0,57,0.00,,,0.00,WeatherCatV1.02B3,2013-05-15 00:53:00,
2013-05-14 21:00:00,49.6,33.6,30.06,West,266,2.0,2.0,54,0.00,,,0.00,WeatherCatV1.02B3,2013-05-15 01:00:00,
2013-05-14 21:05:00,49.5,32.6,30.06,West,266,0.0,3.0,52,0.00,,,0.00,WeatherCatV1.02B3,2013-05-15 01:05:00,
2013-05-14 21:10:00,49.5,33.6,30.06,West,266,0.0,0.0,54,0.00,,,0.00,WeatherCatV1.02B3,2013-05-15 01:10:00,
2013-05-14 21:15:00,49.4,32.5,30.06,West,266,0.0,0.0,52,0.00,,,0.00,WeatherCatV1.02B3,2013-05-15 01:15:00,
2013-05-14 21:20:00,49.2,32.8,30.06,West,266,0.0,0.0,53,0.00,,,0.00,WeatherCatV1.02B3,2013-05-15 01:20:00,
2013-05-14 21:25:00,48.9,33.0,30.06,West,266,0.0,0.0,54,0.00,,,0.00,WeatherCatV1.02B3,2013-05-15 01:25:00,
2013-05-14 21:30:00,48.6,34.1,30.06,West,266,0.0,0.0,57,0.00,,,0.00,WeatherCatV1.02B3,2013-05-15 01:30:00,
2013-05-14 21:35:00,48.3,34.6,30.07,West,266,0.0,0.0,59,0.00,,,0.00,WeatherCatV1.02B3,2013-05-15 01:35:00,
2013-05-14 21:40:00,47.9,34.3,30.07,West,266,2.0,3.0,59,0.00,,,0.00,WeatherCatV1.02B3,2013-05-15 01:40:00,
2013-05-14 21:45:00,47.6,34.4,30.07,West,266,1.0,2.0,60,0.00,,,0.00,WeatherCatV1.02B3,2013-05-15 01:45:00,
2013-05-14 21:50:00,47.4,34.6,30.07,West,266,0.0,2.0,61,0.00,,,0.00,WeatherCatV1.02B3,2013-05-15 01:50:00,
2013-05-14 21:55:00,47.2,34.9,30.07,West,266,0.0,0.0,62,0.00,,,0.00,WeatherCatV1.02B3,2013-05-15 01:55:00,
2013-05-14 22:00:00,47.0,34.7,30.07,West,266,0.0,1.0,62,0.00,,,0.00,WeatherCatV1.02B3,2013-05-15 02:00:00,
2013-05-14 22:05:00,47.0,35.1,30.07,West,266,0.0,1.0,63,0.00,,,0.00,WeatherCatV1.02B3,2013-05-15 02:05:00,
2013-05-14 22:10:00,47.0,35.1,30.07,West,266,0.0,0.0,63,0.00,,,0.00,WeatherCatV1.02B3,2013-05-15 02:10:00,
2013-05-14 22:15:00,47.0,35.1,30.07,West,266,0.0,0.0,63,0.00,,,0.00,WeatherCatV1.02B3,2013-05-15 02:15:00,
2013-05-14 22:20:00,47.1,35.6,30.07,West,266,0.0,0.0,64,0.00,,,0.00,WeatherCatV1.02B3,2013-05-15 02:20:00,
2013-05-14 22:25:00,47.0,35.5,30.06,West,266,0.0,0.0,64,0.00,,,0.00,WeatherCatV1.02B3,2013-05-15 02:25:00,
2013-05-14 22:30:00,46.9,35.4,30.06,West,266,0.0,2.0,64,0.00,,,0.00,WeatherCatV1.02B3,2013-05-15 02:30:00,
2013-05-14 22:35:00,46.6,35.1,30.06,West,266,0.0,0.0,64,0.00,,,0.00,WeatherCatV1.02B3,2013-05-15 02:35:00,
2013-05-14 22:40:00,46.3,34.8,30.07,West,266,0.0,0.0,64,0.00,,,0.00,WeatherCatV1.02B3,2013-05-15 02:40:00,
2013-05-14 22:45:00,45.9,34.8,30.07,West,266,0.0,3.0,65,0.00,,,0.00,WeatherCatV1.02B3,2013-05-15 02:45:00,
2013-05-14 22:50:00,45.6,34.9,30.07,West,266,0.0,0.0,66,0.00,,,0.00,WeatherCatV1.02B3,2013-05-15 02:50:00,
2013-05-14 22:55:00,45.4,34.7,30.07,West,266,0.0,0.0,66,0.00,,,0.00,WeatherCatV1.02B3,2013-05-15 02:55:00,
2013-05-14 23:00:00,45.0,34.3,30.06,West,266,0.0,0.0,66,0.00,,,0.00,WeatherCatV1.02B3,2013-05-15 03:00:00,
2013-05-14 23:05:00,44.6,34.7,30.07,West,266,0.0,0.0,68,0.00,,,0.00,WeatherCatV1.02B3,2013-05-15 03:05:00,
2013-05-14 23:10:00,44.2,33.9,30.07,West,266,0.0,0.0,67,0.00,,,0.00,WeatherCatV1.02B3,2013-05-15 03:10:00,
2013-05-14 23:15:00,43.9,34.0,30.06,West,266,0.0,1.0,68,0.00,,,0.00,WeatherCatV1.02B3,2013-05-15 03:15:00,
2013-05-14 23:20:00,43.6,34.1,30.06,West,266,0.0,1.0,69,0.00,,,0.00,WeatherCatV1.02B3,2013-05-15 03:20:00,
2013-05-14 23:25:00,43.4,33.9,30.07,West,266,0.0,1.0,69,0.00,,,0.00,WeatherCatV1.02B3,2013-05-15 03:25:00,
2013-05-14 23:30:00,43.2,34.1,30.07,West,266,0.0,1.0,70,0.00,,,0.00,WeatherCatV1.02B3,2013-05-15 03:30:00,
2013-05-14 23:35:00,43.1,34.0,30.07,West,266,0.0,2.0,70,0.00,,,0.00,WeatherCatV1.02B3,2013-05-15 03:35:00,
2013-05-14 23:40:00,43.1,34.0,30.07,West,266,1.0,2.0,70,0.00,,,0.00,WeatherCatV1.02B3,2013-05-15 03:40:00,
2013-05-14 23:45:00,43.1,34.0,30.08,West,266,2.0,2.0,70,0.00,,,0.00,WeatherCatV1.02B3,2013-05-15 03:45:00,
2013-05-14 23:50:00,43.1,34.3,30.08,West,266,0.0,1.0,71,0.00,,,0.00,WeatherCatV1.02B3,2013-05-15 03:50:00,
2013-05-14 23:55:00,43.1,34.7,30.08,West,266,0.0,1.0,72,0.00,,,0.00,WeatherCatV1.02B3,2013-05-15 03:55:00,